GW2905 Weather Reports


Display with metric or nautical units.
time (UTC)temp
F
wind
direction
speed
MPH
gust
MPH
rain 1hr
in
rain 24hr
in
rain mn
in
humidity
%
barometer
mb
20260508041551 59 0 0.0 1.0 0.00 0.00 0.00 58 1015.8
20260508040052 59 24 0.0 2.0 0.00 0.00 0.00 59 1015.7
20260508034552 59 0 0.0 2.0 0.00 0.00 0.00 63 1015.6
20260508033059 59 0 0.0 2.0 0.00 0.00 0.00 61 1015.5
20260508031552 60 0 0.0 2.0 0.00 0.00 0.00 60 1015.4
20260508030055 61 0 0.0 2.0 0.00 0.00 0.00 59 1015.3
20260508024600 61 0 0.0 2.0 0.00 0.00 0.00 58 1015.4
20260508023056 62 0 0.0 2.0 0.00 0.00 0.00 55 1015.5
20260508021552 63 0 0.0 2.0 0.00 0.00 0.00 52 1015.5
20260508020058 64 291 0.0 3.0 0.00 0.00 0.00 50 1015.4
20260508014552 64 0 0.0 2.0 0.00 0.00 0.00 46 1015.6
20260508013054 65 0 0.0 3.0 0.00 0.00 0.00 48 1015.8
20260508011606 65 0 0.0 2.0 0.00 0.00 0.00 49 1015.8
20260508010054 65 0 0.0 3.0 0.00 0.00 0.00 48 1015.8
20260508004558 65 11 0.0 4.0 0.00 0.00 0.00 46 1015.9
20260508003053 65 294 0.0 2.0 0.00 0.00 0.00 46 1016.0
20260508001553 66 115 0.0 3.0 0.00 0.00 0.00 48 1016.1
20260508000100 66 0 1.0 3.0 0.00 0.00 0.00 49 1016.3
20260507234559 65 144 1.0 3.0 0.00 0.00 0.00 54 1016.5
20260507233052 66 0 0.0 4.0 0.00 0.00 0.00 49 1016.8
20260507231559 68 0 1.0 5.0 0.00 0.00 0.00 45 1017.0
20260507230053 66 127 1.0 4.0 0.00 0.00 0.00 48 1017.2
20260507224558 66 132 0.0 5.0 0.00 0.00 0.00 52 1017.3
20260507223057 66 126 1.0 5.0 0.00 0.00 0.00 51 1017.4
20260507221554 65 171 1.0 5.0 0.00 0.00 0.00 54 1017.4
20260507220053 67 0 1.0 4.0 0.00 0.00 0.00 49 1017.6
20260507214556 65 188 1.0 4.0 0.00 0.00 0.00 46 1017.8
20260507213054 64 104 3.0 7.0 0.00 0.00 0.00 46 1017.9
20260507211551 64 181 1.0 4.0 0.00 0.00 0.00 54 1018.1
20260507210059 63 223 1.0 6.0 0.00 0.00 0.00 52 1018.2
20260507204553 63 84 2.0 4.0 0.00 0.00 0.00 51 1018.5
20260507203053 63 149 1.0 4.0 0.00 0.00 0.00 50 1018.7
20260507201608 62 133 1.0 5.0 0.00 0.00 0.00 56 1018.8
20260507200057 61 0 1.0 4.0 0.00 0.00 0.00 56 1019.0
20260507194604 60 100 1.0 5.0 0.00 0.00 0.00 58 1019.1
20260507193055 61 270 1.0 4.0 0.00 0.00 0.00 63 1019.2
20260507191553 59 36 2.0 5.0 0.00 0.00 0.00 60 1019.4
20260507190049 59 199 1.0 4.0 0.00 0.00 0.00 62 1019.5
20260507184554 59 176 0.0 4.0 0.00 0.00 0.00 68 1019.6
20260507183051 58 315 1.0 9.0 0.00 0.00 0.00 66 1019.5
20260507181549 57 191 1.0 4.0 0.00 0.00 0.00 66 1019.7
20260507180058 56 184 1.0 4.0 0.00 0.00 0.00 73 1019.9
20260507174558 53 0 1.0 3.0 0.00 0.00 0.00 73 1020.0
20260507173051 54 169 1.0 3.0 0.00 0.00 0.00 72 1020.0
20260507171603 54 130 0.0 4.0 0.00 0.00 0.00 73 1020.1
20260507170053 53 0 0.0 4.0 0.00 0.00 0.00 74 1020.1
20260507164551 52 275 0.0 5.0 0.00 0.00 0.00 75 1020.1
20260507163049 52 317 1.0 4.0 0.00 0.00 0.00 75 1020.1
20260507161552 51 48 1.0 4.0 0.00 0.00 0.00 79 1020.1
20260507160055 50 184 0.0 3.0 0.00 0.00 0.00 81 1020.1
20260507154551 49 22 0.0 5.0 0.00 0.00 0.00 81 1020.1
20260507153056 49 0 0.0 3.0 0.00 0.00 0.00 81 1020.2
20260507151558 49 0 0.0 3.0 0.00 0.00 0.00 82 1020.2
20260507150054 49 0 0.0 3.0 0.00 0.00 0.00 84 1020.2
20260507144615 49 273 0.0 2.0 0.00 0.00 0.00 84 1020.1
20260507143059 49 0 0.0 2.0 0.00 0.00 0.00 84 1020.1
20260507141612 49 0 0.0 2.0 0.00 0.00 0.00 85 1020.0
20260507140055 49 189 0.0 1.0 0.00 0.00 0.00 86 1019.9
20260507134556 49 0 0.0 2.0 0.00 0.00 0.00 87 1019.7
20260507133055 49 0 0.0 1.0 0.00 0.00 0.00 86 1019.6
20260507131552 49 0 0.0 1.0 0.00 0.00 0.00 87 1019.6
20260507130104 49 0 0.0 1.0 0.00 0.00 0.00 85 1019.6
20260507124554 49 0 0.0 2.0 0.00 0.00 0.00 85 1019.7
20260507123050 49 0 0.0 2.0 0.00 0.00 0.00 84 1019.7
20260507121552 49 0 0.0 2.0 0.00 0.00 0.00 85 1019.7
20260507120050 49 0 0.0 1.0 0.00 0.00 0.00 84 1019.9
20260507114556 49 0 0.0 0.0 0.00 0.00 0.00 86 1020.0
20260507113056 50 0 0.0 0.0 0.00 0.00 0.00 86 1020.0
20260507111559 50 0 0.0 0.0 0.00 0.00 0.00 84 1020.1
20260507110055 50 0 0.0 0.0 0.00 0.00 0.00 84 1020.1
20260507104556 50 0 0.0 0.0 0.00 0.00 0.00 84 1020.2
20260507103104 50 0 0.0 1.0 0.00 0.00 0.00 83 1020.3
20260507101556 50 0 0.0 1.0 0.00 0.00 0.00 83 1020.4
20260507100058 50 0 0.0 0.0 0.00 0.00 0.00 82 1020.5
20260507094554 51 0 0.0 0.0 0.00 0.00 0.00 82 1020.5
20260507093100 51 0 0.0 0.0 0.00 0.00 0.00 83 1020.6
20260507091600 51 0 0.0 0.0 0.00 0.00 0.00 86 1020.9
20260507090053 51 0 0.0 0.0 0.00 0.00 0.00 86 1020.9
20260507084553 51 0 0.0 0.0 0.00 0.00 0.00 87 1020.8
20260507083053 51 0 0.0 0.0 0.00 0.00 0.00 87 1020.9
20260507081551 51 0 0.0 0.0 0.00 0.00 0.00 87 1020.9
20260507080050 51 0 0.0 0.0 0.00 0.00 0.00 87 1020.9
20260507074550 51 0 0.0 0.0 0.00 0.00 0.00 86 1020.9
20260507073055 51 0 0.0 0.0 0.00 0.00 0.00 86 1021.0
20260507071556 51 0 0.0 0.0 0.00 0.00 0.00 86 1020.8
20260507070058 51 0 0.0 0.0 0.00 0.00 0.00 84 1020.6
20260507064551 52 0 0.0 1.0 0.00 0.00 0.00 82 1020.6
20260507063052 52 0 0.0 2.0 0.00 0.00 0.00 82 1020.7
20260507061550 52 0 0.0 6.0 0.00 0.00 0.00 83 1020.7
20260507060058 52 42 0.0 3.0 0.00 0.00 0.00 83 1020.8
20260507054601 52 35 0.0 7.0 0.00 0.00 0.00 84 1020.7
20260507053057 53 0 0.0 2.0 0.00 0.00 0.00 85 1020.5
20260507051551 53 14 0.0 3.0 0.00 0.00 0.00 84 1020.5
20260507050056 53 44 0.0 5.0 0.00 0.00 0.00 84 1020.6
20260507044601 54 0 0.0 3.0 0.00 0.00 0.00 83 1020.6
20260507043051 54 0 0.0 5.0 0.00 0.00 0.00 83 1020.5